Regional Weather Roundup
Issued by NWS

Home | Current Version | Previous Version | Graphics & Text | Print | Product List | Glossary On
Versions: 1 2 3 4 5 6 7 8 9 10 11 12 13 14 15 16 17 18 19 20 21 22 23 24 25 26 27 28 29 30 31 32 33 34 35 36 37 38 39 40 41 42 43 44 45 46 47 48 49 50
123
ASUS45 KBOU 222207
RWRCO

WEATHER ROUNDUP FOR COLORADO
NATIONAL WEATHER SERVICE DENVER/BOULDER CO
400 PM MDT THU JUN 22 2017

NOTE: "FAIR" INDICATES FEW OR NO CLOUDS BELOW 12000 FEET WITH NO
SIGNIFICANT WEATHER AND/OR OBSTRUCTIONS TO VISIBILITY.

COZ001>005-013-030-031-222300-
...NORTHWEST COLORADO...

CITY           SKY/WX    TMP DP  RH WIND       PRES   REMARKS
CRAIG          FAIR      88  32  13 W12       29.97F
HAYDEN         FAIR      88  34  14 NW13G20   30.00F
MEEKER         FAIR      90  35  14 NW22G29   29.97F
RABBIT EARS PA FAIR      64  37  36 W10G20    30.35R
STEAMBOAT SPGS FAIR      82  38  20 W10G22    30.02F
WALDEN         FAIR      79  28  15 NW16G30   30.14S
$$

COZ006>008-011-222300-
...WEST CENTRAL VALLEYS...

CITY           SKY/WX    TMP DP  RH WIND       PRES   REMARKS
GRAND JUNCTION FAIR      95  32  11 N26G39    29.86R
MONTROSE       FAIR      97  17   5 W18G26    29.92F
EAGLE          PTSUNNY   81  36  19 NW18G26   30.06R
RIFLE          LGT RAIN  84  31  14 S23G55    29.94R SQUALL
DELTA          FAIR     103  14   4 W20G29    29.87S
NUCLA          FAIR      99  14   4 W15G28    29.99S
$$

COZ017>023-064>068-222300-
...SOUTHWEST COLORADO...

CITY           SKY/WX    TMP DP  RH WIND       PRES   REMARKS
DURANGO        FAIR      92  18   6 NW17G31   30.03F
CORTEZ         FAIR      98   3   3 W17G28    29.97F
PAGOSA SPRINGS FAIR      89  14   6 SW24G32   30.11F
TELLURIDE      FAIR     N/A N/A N/A NW8G31    30.30R
WOLF CREEK PAS FAIR      61  28  29 SW8       30.54F
$$

COZ009-010-012-014-032>034-037-058>063-222300-
...CENTRAL COLORADO...

CITY           SKY/WX    TMP DP  RH WIND       PRES   REMARKS
ASPEN          FAIR      79  29  16 N9G20     30.12R
BUENA VISTA    FAIR      86  18   8 W15G32    30.09S
COPPER MTN     CLOUDY    61  23  23 W35G44    30.46S
BERTHOUD PASS  CLOUDY    48  36  61 W28G47    30.50F
COTTONWOOD PAS FAIR      81   3   5 N3G16     30.26S
GUNNISON       FAIR      86  23  10 W15G24    30.09F
KREMMLING      NOT AVBL
LEADVILLE      FAIR      68  26  20 NE10      30.27S
MONARCH PASS   PTSUNNY   66  21  18 W39G52    30.56R
SALIDA         FAIR      88  20   8 W13G31    30.12S
SUNLIGHT       PTSUNNY   61  28  29 W9G25     30.41S
WILKERSON PASS CLOUDY    59  28  31 E8G16     30.42F
$$

COZ069>075-222300-
...SAN LUIS VALLEY/SANGRE DE CRISTO MOUNTAINS...

CITY           SKY/WX    TMP DP  RH WIND       PRES   REMARKS
ALAMOSA        LGT RAIN  67  45  45 W12G41    30.14S
DEL NORTE      NOT AVBL
LA VETA PASS   FAIR      68  30  24 S21       30.43F
SAGUACHE       FAIR      88  25  10 NW22G32   30.09F
$$

COZ035-036-038>040-222300-
...NORTHERN COLORADO FRONT RANGE...

CITY           SKY/WX    TMP DP  RH WIND       PRES   REMARKS
DENVER INTL AP TSTM      76  52  43 E7        29.95F
DMNS CITY PARK   N/A     77  48  35 NW15G22   29.98R
AURORA         PTSUNNY   73  59  60 NE14      29.98R
FRONT RANGE AP TSTM      75  52  43 NE9G41    29.98R
ERIE MUNI ARPT FAIR      77  46  33 N6        29.98R
BOULDER MUN AP FAIR      75  46  35 CALM      29.99R
CENTENNIAL     PTSUNNY   82  52  35 N21G29    30.01R
BROOMFIELD     PTSUNNY  N/A N/A N/A NW12      30.02R
FORT COLLINS   FAIR      79  45  29 E10       29.95F
LONGMONT       LGT RAIN  72  60  67 W3        30.00R
$$

COZ041-046-047-076>085-087-088-222300-
...PIKES PEAK/PALMER DIVIDE AND SOUTHERN FOOTHILLS...

CITY           SKY/WX    TMP DP  RH WIND       PRES   REMARKS
COLO. SPRINGS  PTSUNNY   85  41  21 E15G26    29.96F
A. F. ACADEMY  PTSUNNY   83  35  17 N13G18    29.96S
SCHRIEVER AFB  NOT AVBL
CHEYENNE MTN   NOT AVBL
ELLICOTT       FAIR     N/A N/A N/A E17G25    29.96S
FALCON           N/A     83  40  22 E15G22    30.03S
FORT CARSON    FAIR      82  45  26 NE18G26   29.91F
LIMON          FAIR      75  53  46 SE7       29.96F
MONUMENT HILL  FAIR      81  37  21 N9G18     30.06F
CANON CITY     SUNNY     97  36  11 E21       29.83S
WALSENBURG     FAIR      91  36  14 W21G28    29.91F
TRINIDAD       FAIR      90  33  13 NW14G25   29.90S
$$

COZ042>045-048>051-090-091-222300-
...NORTHEAST COLORADO...

CITY           SKY/WX    TMP DP  RH WIND       PRES   REMARKS
GREELEY ARPT   LGT RAIN  79  47  32 NE13      29.95R
AKRON          FAIR      82  50  32 N18G24    29.91F
BURLINGTON     FAIR      87  55  33 N15G23    29.85R
WRAY           FAIR      88  52  29 NE13G29   29.83R
YUMA           NOT AVBL
STERLING       FAIR      82  54  36 NE13G22   29.88R
HOLYOKE        NOT AVBL
FORT MORGAN    FAIR      81  47  31 NE18G24   29.90S
$$

COZ086-089-092>099-222300-
...SOUTHEAST COLORADO...

CITY           SKY/WX    TMP DP  RH WIND       PRES   REMARKS
PUEBLO         FAIR      95  41  15 NE23G30   29.80R
LA JUNTA       FAIR      95  43  16 N28G40    29.78R
LAMAR          FAIR     102  44  14 NE21G29   29.69R
SPRINGFIELD      N/A    100  36  11 NE9       29.75F
$$




USA.gov is the U.S. government's official web portal to all federal, state and local government web resources and services.